Home > Weather > Abilene > Past weeks

Flag for U.S.A. Weather for the Past 2 Weeks in Abilene, Texas, U.S.A.

Now
52 °F

Sunny.


Feels Like: 49 °F
Forecast: 34 / 54 °F
Wind: 9 mph from North

Location: Abilene Regional Airport

Current Time: Feb 6, 2016 at 3:09:42 PM

Latest Report: Feb 6, 2016 at 1:52 PM


Visibility: 10 mi

Pressure: 30.37 "Hg (28.51 "Hg at 524m altitude)

Humidity: 31%

Dew point: 22 °F

Location of AbileneLocation

Historic Weather in Abilene — Graph

°F

Abilene Temperature Yesterday

Maximum temperature yesterday: 57 °F (at 2:52 PM)
Minimum temperature yesterday: 35 °F (at 4:52 AM)
Average temperature yesterday: 45 °F

High & Low Weather Summary for the Past Weeks

 TemperatureHumidityPressure
High82 °F (Feb 1, 3:52 PM)92% (Jan 27, 8:52 AM)30.50 "Hg (Jan 27, 8:52 AM)
Low24 °F (Feb 4, 7:52 AM)12% (Jan 30, 4:52 PM)29.36 "Hg (Feb 1, 4:52 PM)
Average49 °F48%30.04 "Hg
* Reported Jan 22 1:52 PM — Feb 6 1:52 PM, Abilene, Weather by CustomWeather, © 2016

Note: Actual official high and low records may vary slightly from our data, if they occured in-between our weather recording intervals... More about our weather records

Advertising

Abilene Weather History for the Previous 24 Hours

 ConditionsComfort  
Time TempWeatherWind HumidityBarometerVisibility
1:52 PM
Sat, Feb 6
52 °FSunny.9 mph31%30.37 "Hg10 mi
12:52 PM51 °FSunny.13 mph33%30.40 "Hg10 mi
11:52 AM48 °FSunny.16 mph37%30.43 "Hg10 mi
10:52 AM46 °FSunny.16 mph42%30.44 "Hg10 mi
9:52 AM42 °FSunny.17 mph47%30.43 "Hg10 mi
8:52 AM38 °FSunny.17 mph51%30.40 "Hg10 mi
7:52 AM34 °FSunny.13 mph61%30.40 "Hg10 mi
6:52 AM34 °FClear.14 mph61%30.37 "Hg10 mi
5:52 AM35 °FClear.14 mph59%30.34 "Hg10 mi
4:52 AM37 °FClear.16 mph54%30.32 "Hg10 mi
3:52 AM38 °FClear.18 mph53%30.30 "Hg10 mi
2:52 AM39 °FClear.15 mph50%30.29 "Hg10 mi
1:52 AM40 °FClear.20 mph47%30.27 "Hg10 mi
12:52 AM40 °FClear.17 mph45%30.27 "Hg10 mi
11:52 PM
Fri, Feb 5
41 °FClear.14 mph43%30.28 "Hg10 mi
10:52 PM42 °FClear.14 mph41%30.27 "Hg10 mi
9:52 PM45 °FClear.17 mph35%30.26 "Hg10 mi
8:52 PM48 °FPassing clouds.24 mph32%30.24 "Hg9 mi
7:52 PM51 °FPassing clouds.16 mph28%30.23 "Hg10 mi
6:52 PM53 °FPassing clouds.12 mph27%30.20 "Hg10 mi
5:52 PM56 °FOvercast.8 mph29%30.18 "Hg10 mi
4:52 PM57 °FPassing clouds.12 mph27%30.18 "Hg10 mi
3:52 PM57 °FSunny.16 mph27%30.18 "Hg10 mi
Weather by CustomWeather, © 2016

See weather overviewHow to use our weather pages